Warning: Javascript must be enabled to use all the features on this page!


Page Loading - Please Wait...

* We've detected you're using a mobile device. Find our Next Generation Station Page here.
Click to hideNews Bulletins

Peak Streamflow for the Nation

USGS 05459490 Spring Creek near Mason City, IA

Cerro Gordo County, Iowa
Hydrologic Unit Code 07080203
Latitude  43°12'48", Longitude  93°12'38" NAD27
Drainage area 29.3  square miles
Output formats
Table
Graph
Tab-separated file
peakfq (watstore) format
Reselect output format
Water
Year
Date Gage
Height
(feet)
Stream-
flow
(cfs)
1966 1966-07-14 85.59 720
1967 1967   4804,Bm
1968 1968   4804,Bm
1969 1969-07-08 88.41 3,2002
1970 1969-12-31   1,2802
1971 1971-03-31 84.89 495
1972 1972   2004,Bm
1973 1972-10-23 85.44 705
1974 1974   1604,Bm
1975 1975-04-28 88.19 2,050
1976 1976   1404,Bm
1977 1977   1404,Bm
1978 1978-06-15 86.16 610
1979 1979-08-23 86.93 840
1980 1980-05-30 90.32 3,320
1981 1981-05-28 88.34 1,500
1982 1982-06-24 84.462 270
1983 1983-06-28 86.81 830
1984 1984-06-16 86.81 830
1985 1985   1154,Bm
1986 1986-03-18 87.25 1,000
1987 1986-10-12 86.07 590
1988 1988   1154,Bm
1989 1989   1154,Bm
1990 1990-08-25 88.94 1,820
1991 1991-05-18 88.82 1,900
1992 1992   1154,Bm
1993 1993-06-19 89.65 2,300
1994 1994-06-23 87.47 1,000
1995 1995-05-28 85.67 420
1996 1996-06-17 83.83 140
1997 1997   90.04,Bm
1998 1998   90.04,Bm
1999 1999-07-21 91.05 2,030
2000 2000-06-14 86.61 420
2001 2001-04-11 87.66 640
2002 2002-08-04 83.67 90.0
2003 2003   27.04,Bm
2004 2004-05-22 91.15 5,340
2005 2005-04-19 90.14 3,160
2006 2006-03-30 84.38 71.4
2007 2007-03-15 84.93 114
2008 2008-06-06 92.91 4,680
2009 2009-02-10 85.941 5992
2010 2010-03-12 86.501 7602
2011 2011-03-23 85.54 498
2012 2012   99.84,Bm
2013 2013-06-13 88.77 1,690
2014 2014-06-19 86.132 723
2015 2015-06-22 85.70 623
2016 2016-09-22 90.53 3,120
2017 2017-02-21 84.01 301
2018 2018-06-08 90.32 2,940
2019 2019-03-14 88.101 1,5502
2020 2020-05-26 86.06 756
2021 2021-08-28 83.82 325
?
  Peak Gage-Height Qualification Codes.
?
  Peak Streamflow Qualification Codes.